Weather History for Sulphur Springs, TX

Change the Weather History Date:

Tuesday, February 5, 2013

  Actual Average (KGVT) Record (KGVT)
Temperature  
Mean Temperature 56 °F -  
Max Temperature 62 °F 54 °F 140 °F (2007)
Min Temperature 51 °F 40 °F 10 °F (2011)
Degree Days  
Heating Degree Days 8    
Growing Degree Days 6 (Base 50)    
Moisture  
Dew Point 53 °F    
Average Humidity 91    
Maximum Humidity 100    
Minimum Humidity 77    
Precipitation  
Precipitation 0.00 in - - ()
Sea Level Pressure  
Sea Level Pressure 30.00 in    
Wind  
Wind Speed 5 mph (ENE)    
Max Wind Speed 8 mph    
Max Gust Speed -    
Visibility 3 miles    
Events Fog    
Averages and records for this station are not official NWS values.
T = Trace of Precipitation, MM = Missing Value Source: NWS Daily Summary

Daily Weather History Graph

Daily Weather History Graph

Search for Another Location

Airport:

Trip Planner

Search our weather history database for the weather conditions in past years. The results will help you decide how hot, cold, wet, or windy it might be!

Date:

Astronomy

Feb. 05, 2013 Rise Set
Actual Time 7:14 AM CST 5:58 PM CST
Civil Twilight 6:49 AM CST 6:24 PM CST
Nautical Twilight 6:19 AM CST 6:53 PM CST
Astronomical Twilight 5:50 AM CST 7:22 PM CST
Moon 2:52 AM CST (2/5) 1:22 PM CST (2/5)
Length of Visible Light 11h 35m
Length of Day
10h 43m
Waning Crescent, 26% of the Moon is Illuminated
Feb 5
Waning Crescent
Feb 10
New
Feb 17
First Quarter
Feb 25
Full
Mar 4
Last Quarter

Hourly Weather History & Observations

Time (CST) Temp. Dew Point Humidity Pressure Visibility Wind Dir Wind Speed Gust Speed Precip Events Conditions
12:15 AM 51.8 °F 51.8 °F 100% 29.94 in 0.2 mi ENE 3.5 mph - N/A Fog Fog
12:35 AM 51.8 °F 50.0 °F 94% 29.94 in 0.2 mi East 4.6 mph - N/A Fog Fog
12:55 AM 51.8 °F 50.0 °F 94% 29.94 in 0.8 mi ENE 5.8 mph - N/A   Overcast
1:15 AM 51.8 °F 50.0 °F 94% 29.95 in 0.8 mi ENE 4.6 mph - N/A   Overcast
1:35 AM 51.8 °F 50.0 °F 94% 29.95 in 1.0 mi ENE 3.5 mph - N/A   Overcast
1:55 AM 51.8 °F 51.8 °F 100% 29.94 in 1.0 mi East 3.5 mph - N/A   Overcast
2:15 AM 51.8 °F 51.8 °F 100% 29.94 in 0.8 mi East 3.5 mph - N/A   Overcast
2:35 AM 51.8 °F 51.8 °F 100% 29.94 in 0.5 mi East 4.6 mph - N/A Fog Fog
2:55 AM 51.8 °F 51.8 °F 100% 29.94 in 0.5 mi East 4.6 mph - N/A Fog Fog
3:15 AM 51.8 °F 51.8 °F 100% 29.94 in 0.2 mi East 3.5 mph - N/A Fog Fog
3:35 AM 51.8 °F 51.8 °F 100% 29.93 in 0.2 mi East 6.9 mph - N/A Fog Fog
3:55 AM 51.8 °F 51.8 °F 100% 29.93 in 0.2 mi Calm Calm - N/A Fog Fog
4:15 AM 51.8 °F 51.8 °F 100% 29.92 in 0.2 mi East 3.5 mph - N/A Fog Fog
4:35 AM 51.8 °F 51.8 °F 100% 29.93 in 0.2 mi Calm Calm - N/A Fog Fog
4:55 AM 51.8 °F 51.8 °F 100% 29.94 in 0.2 mi ENE 3.5 mph - N/A Fog Fog
5:15 AM 51.8 °F 51.8 °F 100% 29.94 in 0.2 mi Calm Calm - N/A Fog Fog
5:35 AM 51.8 °F 51.8 °F 100% 29.95 in 0.2 mi ENE 4.6 mph - N/A Fog Fog
5:55 AM 51.8 °F 51.8 °F 100% 29.95 in 0.5 mi ENE 5.8 mph - N/A Fog Fog
6:15 AM 51.8 °F 51.8 °F 100% 29.96 in 0.5 mi East 3.5 mph - N/A Fog Fog
6:35 AM 51.8 °F 51.8 °F 100% 29.97 in 0.5 mi ENE 4.6 mph - N/A Fog Fog
6:55 AM 51.8 °F 51.8 °F 100% 29.98 in 0.5 mi ENE 4.6 mph - N/A Fog Fog
7:15 AM 51.8 °F 51.8 °F 100% 29.99 in 0.5 mi East 4.6 mph - N/A Fog Fog
7:35 AM 51.8 °F 51.8 °F 100% 29.99 in 0.2 mi ENE 3.5 mph - N/A Fog Fog
7:55 AM 51.8 °F 51.8 °F 100% 30.00 in 0.5 mi NE 5.8 mph - N/A Fog Fog
8:15 AM 51.8 °F 51.8 °F 100% 30.02 in 0.5 mi ENE 5.8 mph - N/A Fog Fog
8:35 AM 53.6 °F 51.8 °F 94% 30.02 in 0.5 mi ENE 5.8 mph - N/A Fog Fog
8:55 AM 53.6 °F 51.8 °F 94% 30.03 in 0.5 mi East 5.8 mph - N/A Fog Fog
9:15 AM 53.6 °F 53.6 °F 100% 30.03 in 0.5 mi East 5.8 mph - N/A Fog Fog
9:35 AM 53.6 °F 53.6 °F 100% 30.03 in 0.8 mi East 6.9 mph - N/A   Overcast
9:55 AM 55.4 °F 53.6 °F 94% 30.04 in 2.0 mi East 6.9 mph - N/A   Overcast
10:15 AM 55.4 °F 55.4 °F 100% 30.04 in 3.0 mi East 5.8 mph - N/A   Overcast
10:35 AM 55.4 °F 55.4 °F 100% 30.04 in 3.0 mi East 8.1 mph - N/A   Overcast
10:55 AM 59.0 °F 57.2 °F 94% 30.04 in 5.0 mi East 8.1 mph - N/A   Overcast
11:15 AM 59.0 °F 57.2 °F 94% 30.04 in 5.0 mi East 8.1 mph - N/A   Overcast
11:35 AM 59.0 °F 59.0 °F 100% 30.04 in 5.0 mi East 8.1 mph - N/A   Overcast
11:55 AM 60.8 °F 57.2 °F 88% 30.04 in 5.0 mi East 6.9 mph - N/A   Overcast
12:15 PM 62.6 °F 55.4 °F 77% 30.03 in 5.0 mi East 8.1 mph - N/A   Haze
12:35 PM 62.6 °F 55.4 °F 77% 30.02 in 5.0 mi East 6.9 mph - N/A   Haze
12:55 PM 62.6 °F 55.4 °F 77% 30.02 in 7.0 mi East 5.8 mph - N/A   Overcast
1:15 PM 62.6 °F 55.4 °F 77% 30.01 in 7.0 mi East 5.8 mph - N/A   Overcast
1:35 PM 62.6 °F 55.4 °F 77% 30.01 in 7.0 mi East 5.8 mph - N/A   Overcast
1:55 PM 62.6 °F 55.4 °F 77% 30.00 in 5.0 mi East 5.8 mph - N/A   Haze
2:15 PM 62.6 °F 55.4 °F 77% 30.00 in 7.0 mi ENE 5.8 mph - N/A   Overcast
2:35 PM 62.6 °F 55.4 °F 77% 29.99 in 5.0 mi ENE 6.9 mph - N/A   Haze
2:55 PM 62.6 °F 55.4 °F 77% 29.99 in 7.0 mi ENE 6.9 mph - N/A   Overcast
3:15 PM 62.6 °F 55.4 °F 77% 29.99 in 5.0 mi East 5.8 mph - N/A   Haze
3:35 PM 62.6 °F 55.4 °F 77% 29.99 in 5.0 mi ENE 5.8 mph - N/A   Haze
3:55 PM 62.6 °F 55.4 °F 77% 29.99 in 5.0 mi East 8.1 mph - N/A   Haze
4:15 PM 62.6 °F 55.4 °F 77% 29.99 in 5.0 mi ENE 6.9 mph - N/A   Haze
4:35 PM 62.6 °F 55.4 °F 77% 29.99 in 5.0 mi NE 6.9 mph - N/A   Haze
4:55 PM 62.6 °F 55.4 °F 77% 29.99 in 5.0 mi ENE 5.8 mph - N/A   Haze
5:15 PM 62.6 °F 55.4 °F 77% 30.00 in 5.0 mi NE 4.6 mph - N/A   Haze
5:35 PM 60.8 °F 55.4 °F 82% 29.99 in 7.0 mi NNE 6.9 mph - N/A   Mostly Cloudy
5:55 PM 60.8 °F 55.4 °F 82% 30.00 in 5.0 mi NE 6.9 mph - N/A   Haze
6:15 PM 60.8 °F 53.6 °F 77% 30.00 in 7.0 mi ENE 3.5 mph - N/A   Overcast
6:35 PM 60.8 °F 53.6 °F 77% 30.01 in 7.0 mi ENE 4.6 mph - N/A   Overcast
6:55 PM 59.0 °F 53.6 °F 82% 30.02 in 7.0 mi ENE 4.6 mph - N/A   Overcast
7:15 PM 59.0 °F 53.6 °F 82% 30.03 in 7.0 mi NE 3.5 mph - N/A   Mostly Cloudy
7:35 PM 59.0 °F 53.6 °F 82% 30.03 in 5.0 mi NE 3.5 mph - N/A   Mostly Cloudy
7:55 PM 59.0 °F 53.6 °F 82% 30.03 in 5.0 mi NE 4.6 mph - N/A   Overcast
8:15 PM 57.2 °F 53.6 °F 88% 30.04 in 5.0 mi NE 3.5 mph - N/A   Mostly Cloudy
8:35 PM 57.2 °F 53.6 °F 88% 30.04 in 5.0 mi Calm Calm - N/A   Mostly Cloudy
8:55 PM 55.4 °F 53.6 °F 94% 30.04 in 4.0 mi Calm Calm - N/A   Mostly Cloudy
9:15 PM 55.4 °F 53.6 °F 94% 30.05 in 4.0 mi Calm Calm - N/A   Mostly Cloudy
9:35 PM 55.4 °F 53.6 °F 94% 30.05 in 3.0 mi ENE 3.5 mph - N/A   Mist
10:15 PM 53.6 °F 53.6 °F 100% 30.05 in 2.0 mi East 3.5 mph - N/A   Mist
10:35 PM 53.6 °F 51.8 °F 94% 30.05 in 0.8 mi East 5.8 mph - N/A   Mist
10:55 PM 53.6 °F 51.8 °F 94% 30.05 in 1.0 mi ENE 3.5 mph - N/A   Mist
11:15 PM 53.6 °F 51.8 °F 94% 30.05 in 0.2 mi Calm Calm - N/A Fog Fog
11:35 PM 53.6 °F 51.8 °F 94% 30.05 in 0.2 mi ENE 4.6 mph - N/A Fog Fog
11:55 PM 53.6 °F 51.8 °F 94% 30.05 in 1.2 mi East 3.5 mph - N/A   Overcast